When you browse on this site, cookies collect data to enhance your experience and personalize the content and advertising you see.
Visit our Privacy Policy to learn more. By continuing to use the site, you agree to this use of cookies and data.
  • In Slovakia
  • List of Countries
  • For 7 days
  • Water Temperature
  • Satellite Maps
  • Weather Map
  • Weather Widgets
  • user-avatar
    Login

    Hourly Weather San Luis

    Today, 26 May, Sunday

    Time Temperature Precipitation Wind Pressure Humidity
    00:00 +13°C° 0 mm 2 mps 694 mmHg 46%
    01:00 +13°C° 0 mm 2 mps 694 mmHg 49%
    02:00 +12°C° 0 mm 2 mps 694 mmHg 51%
    03:00 +10°C° 0 mm 2 mps 694 mmHg 55%
    04:00 +10°C° 0 mm 2 mps 694 mmHg 59%
    05:00 +10°C° 0 mm 1 mps 693 mmHg 63%
    06:00 +10°C° 0 mm 1 mps 694 mmHg 63%
    07:00 +10°C° 0 mm 1 mps 694 mmHg 63%
    08:00 +11°C° 0 mm 1 mps 695 mmHg 63%
    09:00 +13°C° 0 mm 1 mps 696 mmHg 55%
    10:00 +15°C° 0 mm 2 mps 696 mmHg 48%
    11:00 +17°C° 0 mm 2 mps 697 mmHg 41%
    12:00 +18°C° 0 mm 2 mps 697 mmHg 38%
    13:00 +18°C° 0 mm 2 mps 697 mmHg 36%
    14:00 +19°C° 0 mm 2 mps 697 mmHg 34%
    15:00 +18°C° 0 mm 2 mps 697 mmHg 36%
    16:00 +18°C° 0 mm 2 mps 697 mmHg 38%
    17:00 +17°C° 0 mm 3 mps 697 mmHg 40%
    18:00 +16°C° 0 mm 3 mps 697 mmHg 42%
    19:00 +13°C° 0 mm 3 mps 697 mmHg 45%
    20:00 +12°C° 0 mm 3 mps 697 mmHg 47%
    21:00 +11°C° 0 mm 3 mps 697 mmHg 47%
    22:00 +11°C° 0 mm 3 mps 697 mmHg 46%
    23:00 +10°C° 0 mm 3 mps 697 mmHg 46%

    Tomorrow, 27 May, Monday

    Time Temperature Precipitation Wind Pressure Humidity
    00:00 +10°C° 0 mm 3 mps 697 mmHg 47%
    01:00 +10°C° 0 mm 3 mps 697 mmHg 48%
    02:00 +9°C° 0 mm 2 mps 697 mmHg 49%
    03:00 +9°C° 0 mm 2 mps 697 mmHg 51%
    04:00 +8°C° 0 mm 2 mps 696 mmHg 53%
    05:00 +9°C° 0 mm 1 mps 696 mmHg 56%
    06:00 +9°C° 0 mm 1 mps 696 mmHg 55%
    07:00 +9°C° 0 mm 2 mps 697 mmHg 55%
    08:00 +9°C° 0 mm 2 mps 697 mmHg 55%
    09:00 +12°C° 0 mm 1 mps 698 mmHg 48%
    10:00 +14°C° 0 mm 1 mps 698 mmHg 40%
    11:00 +16°C° 0 mm 1 mps 699 mmHg 33%
    12:00 +18°C° 0 mm 1 mps 698 mmHg 31%
    13:00 +19°C° 0 mm 1 mps 697 mmHg 29%
    14:00 +19°C° 0 mm 1 mps 697 mmHg 26%
    15:00 +18°C° 0 mm 1 mps 696 mmHg 31%
    16:00 +16°C° 0 mm 1 mps 696 mmHg 36%
    17:00 +15°C° 0 mm 1 mps 695 mmHg 41%
    18:00 +13°C° 0 mm 1 mps 695 mmHg 47%
    19:00 +12°C° 0 mm 1 mps 695 mmHg 53%
    20:00 +10°C° 0 mm 1 mps 696 mmHg 58%
    21:00 +10°C° 0 mm 1 mps 696 mmHg 61%
    22:00 +10°C° 0 mm 1 mps 696 mmHg 64%
    23:00 +9°C° 0 mm 1 mps 696 mmHg 67%

    Day after tomorrow, 28 May, Tuesday

    Time Temperature Precipitation Wind Pressure Humidity
    00:00 +9°C° 0 mm 1 mps 696 mmHg 67%
    01:00 +8°C° 0 mm 1 mps 696 mmHg 68%
    02:00 +8°C° 0 mm 1 mps 695 mmHg 69%
    03:00 +8°C° 0 mm 1 mps 695 mmHg 63%
    04:00 +9°C° 0 mm 1 mps 695 mmHg 56%
    05:00 +9°C° 0 mm 1 mps 695 mmHg 50%
    06:00 +9°C° 0 mm 1 mps 696 mmHg 48%
    07:00 +9°C° 0 mm 2 mps 696 mmHg 46%
    08:00 +9°C° 0 mm 2 mps 697 mmHg 44%
    09:00 +12°C° 0 mm 1 mps 697 mmHg 38%
    10:00 +15°C° 0 mm 1 mps 698 mmHg 32%
    11:00 +18°C° 0 mm 1 mps 699 mmHg 27%
    12:00 +19°C° 0 mm 1 mps 698 mmHg 26%
    13:00 +20°C° 0 mm 1 mps 698 mmHg 25%
    14:00 +20°C° 0 mm 1 mps 698 mmHg 24%
    15:00 +18°C° 0 mm 2 mps 697 mmHg 27%
    16:00 +17°C° 0 mm 2 mps 697 mmHg 30%
    17:00 +16°C° 0 mm 2 mps 697 mmHg 33%
    18:00 +14°C° 0 mm 3 mps 697 mmHg 36%
    19:00 +13°C° 0 mm 3 mps 698 mmHg 40%
    20:00 +12°C° 0 mm 4 mps 698 mmHg 44%
    21:00 +12°C° 0 mm 4 mps 698 mmHg 48%
    22:00 +12°C° 0 mm 4 mps 698 mmHg 52%
    23:00 +12°C° 0 mm 4 mps 699 mmHg 57%

    29 May, Wednesday

    Time Temperature Precipitation Wind Pressure Humidity
    00:00 +11°C° 0 mm 4 mps 699 mmHg 59%
    01:00 +11°C° 0 mm 4 mps 698 mmHg 61%
    02:00 +11°C° 0 mm 4 mps 698 mmHg 63%
    03:00 +11°C° 0 mm 4 mps 698 mmHg 62%
    04:00 +11°C° 0 mm 4 mps 698 mmHg 62%
    05:00 +11°C° 0 mm 4 mps 698 mmHg 62%
    06:00 +11°C° 0 mm 4 mps 698 mmHg 64%
    07:00 +10°C° 0 mm 4 mps 698 mmHg 66%
    08:00 +10°C° 0 mm 4 mps 699 mmHg 68%
    09:00 +12°C° 0 mm 4 mps 699 mmHg 64%
    10:00 +14°C° 0 mm 4 mps 699 mmHg 61%
    11:00 +15°C° 0 mm 4 mps 699 mmHg 58%
    12:00 +15°C° 0.2 mm 4 mps 699 mmHg 59%
    13:00 +15°C° 0.2 mm 4 mps 698 mmHg 60%
    14:00 +15°C° 0.2 mm 4 mps 697 mmHg 61%
    15:00 +16°C° 0.1 mm 3 mps 697 mmHg 63%
    16:00 +14°C° 0.1 mm 3 mps 697 mmHg 65%
    17:00 +15°C° 0.1 mm 2 mps 697 mmHg 67%
    18:00 +14°C° 0 mm 2 mps 697 mmHg 71%
    19:00 +13°C° 0 mm 2 mps 697 mmHg 74%
    20:00 +12°C° 0 mm 2 mps 697 mmHg 78%
    21:00 +12°C° 0 mm 2 mps 697 mmHg 79%
    22:00 +12°C° 0 mm 3 mps 697 mmHg 79%
    23:00 +12°C° 0 mm 3 mps 698 mmHg 79%

    30 May, Thursday

    Time Temperature Precipitation Wind Pressure Humidity
    00:00 +12°C° 0 mm 3 mps 698 mmHg 80%
    01:00 +11°C° 0 mm 3 mps 698 mmHg 82%
    02:00 +11°C° 0 mm 3 mps 698 mmHg 83%
    03:00 +11°C° 0 mm 3 mps 698 mmHg 83%
    04:00 +10°C° 0 mm 4 mps 697 mmHg 84%
    05:00 +10°C° 0 mm 4 mps 697 mmHg 85%
    06:00 +10°C° 0 mm 3 mps 698 mmHg 86%
    07:00 +9°C° 0 mm 3 mps 698 mmHg 87%
    08:00 +9°C° 0 mm 2 mps 698 mmHg 88%
    09:00 +11°C° 0 mm 3 mps 699 mmHg 79%
    10:00 +13°C° 0 mm 3 mps 699 mmHg 71%
    11:00 +14°C° 0 mm 3 mps 700 mmHg 62%
    12:00 +16°C° 0 mm 3 mps 699 mmHg 60%
    13:00 +16°C° 0 mm 3 mps 699 mmHg 57%
    14:00 +17°C° 0 mm 2 mps 698 mmHg 54%
    15:00 +16°C° 0 mm 2 mps 698 mmHg 58%
    16:00 +16°C° 0 mm 2 mps 698 mmHg 62%
    17:00 +15°C° 0 mm 2 mps 698 mmHg 66%
    18:00 +13°C° 0 mm 3 mps 698 mmHg 73%
    19:00 +12°C° 0 mm 3 mps 698 mmHg 81%
    20:00 +10°C° 0 mm 3 mps 698 mmHg 88%
    21:00 +10°C° 0 mm 3 mps 698 mmHg 87%
    22:00 +10°C° 0 mm 2 mps 697 mmHg 87%
    23:00 +9°C° 0 mm 2 mps 697 mmHg 86%

    31 May, Friday

    Time Temperature Precipitation Wind Pressure Humidity
    00:00 +9°C° 0 mm 2 mps 697 mmHg 85%
    01:00 +9°C° 0 mm 2 mps 697 mmHg 84%
    02:00 +9°C° 0 mm 2 mps 696 mmHg 83%
    03:00 +9°C° 0 mm 2 mps 696 mmHg 84%
    04:00 +10°C° 0 mm 2 mps 696 mmHg 85%
    05:00 +10°C° 0 mm 3 mps 695 mmHg 86%
    06:00 +10°C° 0 mm 3 mps 696 mmHg 85%
    07:00 +10°C° 0 mm 4 mps 696 mmHg 84%
    08:00 +11°C° 0 mm 4 mps 696 mmHg 84%
    09:00 +12°C° 0 mm 5 mps 696 mmHg 75%
    10:00 +14°C° 0 mm 7 mps 696 mmHg 66%
    11:00 +16°C° 0 mm 8 mps 696 mmHg 57%
    12:00 +16°C° 0 mm 7 mps 696 mmHg 54%
    13:00 +17°C° 0 mm 7 mps 695 mmHg 52%
    14:00 +17°C° 0 mm 7 mps 694 mmHg 50%
    15:00 +16°C° 0 mm 6 mps 694 mmHg 51%
    16:00 +17°C° 0 mm 4 mps 694 mmHg 53%
    17:00 +16°C° 0 mm 3 mps 694 mmHg 54%
    18:00 +14°C° 0 mm 3 mps 694 mmHg 59%
    19:00 +13°C° 0 mm 2 mps 694 mmHg 64%
    20:00 +12°C° 0 mm 2 mps 694 mmHg 69%
    21:00 +12°C° 0 mm 2 mps 694 mmHg 72%
    22:00 +10°C° 0 mm 3 mps 694 mmHg 76%
    23:00 +10°C° 0 mm 3 mps 694 mmHg 80%
    Show more